Miscellaneous Local Product
Issued by NWS North Platte, NE

Home | Current Version | Previous Version | Graphics & Text | Print | Product List | Glossary On
Versions: 1 2 3 4 5 6 7 8 9 10 11 12 13 14 15 16 17 18 19 20 21 22 23 24 25 26 27 28 29 30 31 32 33 34 35 36 37 38 39 40 41 42 43 44 45 46 47 48 49 50
000
AXUS43 KLBF 240610
MISLBF


WESTERN AND NORTH CENTRAL NEBRASKA HOURLY WEATHER ROUNDUP
NATIONAL WEATHER SERVICE NORTH PLATTE NE
1200 AM CST WED DEC 24 2014

***STATIONS NOT REPORTING VARIABLES SUCH AS SKY/WEATHER OR
PRESSURE ARE PROVIDED BY THE NEBRASKA DEPARTMENT OF
ROADS...RAWS...AND APRS NETWORKS...AND ARE NOT UNDER
NATIONAL WEATHER SERVICE QUALITY CONTROL***

...OBSERVATIONS IN AND NEAR THE EASTERN PANHANDLE OF NEBRASKA...

CITY           SKY/WX    TMP DP  RH WIND       PRES   REMARKS
PINE RIDGE     FAIR      14  10  84 CALM      30.09F
CHADRON        FAIR      11   7  84 CALM      30.10F
ALLIANCE       FAIR      12   9  87 W13       30.08F WCI  -3
SIDNEY         FAIR      15  12  88 NW9       30.10S WCI   3
WHITECLAY        N/A     13  10  87 CALM        N/A
CRESCENT LAKE    N/A     16  13  89 NW8         N/A  WCI   5
LISCO            N/A     19  13  76 W3          N/A
BIG SPRINGS      N/A     18  15  89 SW5         N/A  WCI  11
$$

...OBSERVATIONS IN NORTH CENTRAL NEBRASKA...

CITY           SKY/WX    TMP DP  RH WIND       PRES   REMARKS
VALENTINE      FAIR      20  17  88 NW8       30.07S WCI  10
THEDFORD       FAIR      25  20  83 NW8       30.05S WCI  16
AINSWORTH      MOCLDY    27  23  86 NW14      30.03F WCI  15
O`NEILL        CLOUDY    28  27  95 NW18      30.03F WCI  15
ORD            CLOUDY    28  23  81 N15       30.02F WCI  16
BROKEN BOW     CLOUDY    29  24  82 N24       30.02F WCI  15
BROWNLEE         N/A     20  17  89 NW15        N/A  WCI   6
SPRINGVIEW       N/A     27  23  85 NW7         N/A  WCI  20
BREWSTER         N/A     30  27  86 W9          N/A  WCI  22
ROSE             N/A     30  30 100 SW13        N/A  WCI  20
SARGENT          N/A     28  24  86 NW5G14      N/A  WCI  23
COMSTOCK         N/A     33  29  83 W15         N/A  WCI  23
CHAMBERS         N/A     26  23  89 N3G15       N/A
EWING            N/A     28  27  95 CALM        N/A
$$

...OBSERVATIONS IN SOUTHWEST NEBRASKA AND FAR NORTHEAST COLORADO...

CITY           SKY/WX    TMP DP  RH WIND       PRES   REMARKS
WRAY           FAIR      17  14  88 W9        30.11F WCI   6
HOLYOKE        FAIR      27  19  74 NW10      30.10S WCI  17
IMPERIAL       FAIR      23  16  74 NW14      30.09F WCI  11
OGALLALA       FAIR      25  19  79 NW9       30.09S WCI  15
NORTH PLATTE   FAIR      23  18  81 W10       30.07F WCI  12
MCCOOK         FAIR      26  20  77 NW14      30.07F WCI  14
LEXINGTON      MOCLDY    30  26  83 NW14      30.04S WCI  20
PAXTON           N/A     26  21  80 W6          N/A  WCI  19
BRADY            N/A     23  19  83 SW3         N/A
GOTHENBURG       N/A     28  23  81 W5          N/A  WCI  23
CALLAWAY         N/A     26  23  87 NW13        N/A  WCI  15
$$

...NORTH PLATTE AREA...

CITY           SKY/WX    TMP DP  RH WIND       PRES   REMARKS
AIRPORT        FAIR      23  18  81 W10       30.07F WCI  12
DOWNTOWN         N/A     24  19  80 CALM        N/A
$$

...SOME WEATHER OBSERVATIONS FROM AROUND THE REGION...

CITY           SKY/WX    TMP DP  RH WIND       PRES   REMARKS
DENVER         FAIR      21   9  59 SW7       30.11F WCI  12
LARAMIE        FAIR       3  -2  79 NE3       30.04F
CHEYENNE       FAIR      13   5  70 SW5       30.05F WCI   5
SCOTTSBLUFF    FAIR      15  12  88 W6        30.10F WCI   6
RAPID CITY     FAIR      12   9  87 W3        30.07F
PIERRE         CLOUDY    27  24  89 NW9       30.07S WCI  18
WINNER         CLOUDY    27  23  85 NW16      30.06F WCI  15
SIOUX FALLS    FLURRIES  32  29  88 N14       29.96R WCI  22
OMAHA          FLURRIES  35  33  92 NW18G26   29.91F WCI  24
GRAND ISLAND   CLOUDY    30  24  78 N21       30.01S WCI  17
KANSAS CITY    CLOUDY    36  32  85 N15       29.83S WCI  27
WICHITA        FLURRIES  36  30  79 N17G31    29.95S WCI  26
HAYS           CLOUDY    30  18  59 NW22G29   30.01F WCI  17
LIBERAL        FAIR      28  21  74 NW14      30.10S WCI  17
GOODLAND       FAIR      19  15  84 NW15      30.09F WCI   5
$$



USA.gov is the U.S. government's official web portal to all federal, state and local government web resources and services.